Year,Month,Day,Hour,Minute,Value (Times are PST for temperature in C)
2014,05,06,00,00,6.30
2014,05,06,00,01,6.30
2014,05,06,00,02,6.30
2014,05,06,00,03,6.30
2014,05,06,00,04,6.30
2014,05,06,00,05,6.30
2014,05,06,00,06,6.30
2014,05,06,00,07,6.30
2014,05,06,00,08,6.20
2014,05,06,00,09,6.20
2014,05,06,00,10,6.20
2014,05,06,00,11,6.20
2014,05,06,00,12,6.20
2014,05,06,00,13,6.20
2014,05,06,00,14,6.20
2014,05,06,00,15,6.10
2014,05,06,00,16,6.10
2014,05,06,00,17,6.10
2014,05,06,00,18,6.10
2014,05,06,00,19,6.10
2014,05,06,00,20,6.10
2014,05,06,00,21,6.10
2014,05,06,00,22,6.00
2014,05,06,00,23,6.00
2014,05,06,00,24,6.00
2014,05,06,00,25,6.00
2014,05,06,00,26,5.90
2014,05,06,00,27,5.90
2014,05,06,00,28,5.90
2014,05,06,00,29,5.90
2014,05,06,00,30,5.90
2014,05,06,00,31,5.90
2014,05,06,00,32,5.80
2014,05,06,00,33,5.80
2014,05,06,00,34,5.80
2014,05,06,00,35,5.80
2014,05,06,00,36,5.80
2014,05,06,00,37,5.70
2014,05,06,00,38,5.70
2014,05,06,00,39,5.70
2014,05,06,00,40,5.70
2014,05,06,00,41,5.70
2014,05,06,00,42,5.60
2014,05,06,00,43,5.60
2014,05,06,00,44,5.60
2014,05,06,00,45,5.60
2014,05,06,00,46,5.60
2014,05,06,00,47,5.60
2014,05,06,00,48,5.50
2014,05,06,00,49,5.50
2014,05,06,00,50,5.50
2014,05,06,00,51,5.50
2014,05,06,00,52,5.50
2014,05,06,00,53,5.40
2014,05,06,00,54,5.40
2014,05,06,00,55,5.40
2014,05,06,00,56,5.40
2014,05,06,00,57,5.30
2014,05,06,00,58,5.30
2014,05,06,00,59,5.30
2014,05,06,01,00,5.30
2014,05,06,01,01,5.30
2014,05,06,01,02,5.30
2014,05,06,01,03,5.20
2014,05,06,01,04,5.20
2014,05,06,01,05,5.20
2014,05,06,01,06,5.20
2014,05,06,01,07,5.20
2014,05,06,01,08,5.20
2014,05,06,01,09,5.20
2014,05,06,01,10,5.10
2014,05,06,01,11,5.10
2014,05,06,01,12,5.10
2014,05,06,01,13,5.10
2014,05,06,01,14,5.10
2014,05,06,01,15,5.10
2014,05,06,01,16,5.00
2014,05,06,01,17,5.00
2014,05,06,01,18,5.00
2014,05,06,01,19,5.00
2014,05,06,01,20,5.00
2014,05,06,01,21,4.90
2014,05,06,01,22,4.90
2014,05,06,01,23,4.90
2014,05,06,01,24,4.90
2014,05,06,01,25,4.90
2014,05,06,01,26,4.90
2014,05,06,01,27,4.90
2014,05,06,01,28,4.90
2014,05,06,01,29,4.80
2014,05,06,01,30,4.80
2014,05,06,01,31,4.80
2014,05,06,01,32,4.80
2014,05,06,01,33,4.80
2014,05,06,01,34,4.80
2014,05,06,01,35,4.80
2014,05,06,01,36,4.80
2014,05,06,01,37,4.70
2014,05,06,01,38,4.70
2014,05,06,01,39,4.70
2014,05,06,01,40,4.70
2014,05,06,01,41,4.70
2014,05,06,01,42,4.70
2014,05,06,01,43,4.70
2014,05,06,01,44,4.70
2014,05,06,01,45,4.60
2014,05,06,01,46,4.60
2014,05,06,01,47,4.60
2014,05,06,01,48,4.60
2014,05,06,01,49,4.60
2014,05,06,01,50,4.60
2014,05,06,01,51,4.50
2014,05,06,01,52,4.50
2014,05,06,01,53,4.50
2014,05,06,01,54,4.50
2014,05,06,01,55,4.50
2014,05,06,01,56,4.40
2014,05,06,01,57,4.40
2014,05,06,01,58,4.40
2014,05,06,01,59,4.40
2014,05,06,02,00,4.40
2014,05,06,02,01,4.40
2014,05,06,02,02,4.40
2014,05,06,02,03,4.40
2014,05,06,02,04,4.40
2014,05,06,02,05,4.30
2014,05,06,02,06,4.30
2014,05,06,02,07,4.30
2014,05,06,02,08,4.30
2014,05,06,02,09,4.30
2014,05,06,02,10,4.30
2014,05,06,02,11,4.30
2014,05,06,02,12,4.30
2014,05,06,02,13,4.30
2014,05,06,02,14,4.30
2014,05,06,02,15,4.30
2014,05,06,02,16,4.30
2014,05,06,02,17,4.30
2014,05,06,02,18,4.20
2014,05,06,02,19,4.20
2014,05,06,02,20,4.20
2014,05,06,02,21,4.20
2014,05,06,02,22,4.20
2014,05,06,02,23,4.20
2014,05,06,02,24,4.20
2014,05,06,02,25,4.10
2014,05,06,02,26,4.10
2014,05,06,02,27,4.10
2014,05,06,02,28,4.10
2014,05,06,02,29,4.10
2014,05,06,02,30,4.10
2014,05,06,02,31,4.00
2014,05,06,02,32,4.00
2014,05,06,02,33,4.00
2014,05,06,02,34,4.00
2014,05,06,02,35,4.00
2014,05,06,02,36,4.00
2014,05,06,02,37,4.00
2014,05,06,02,38,3.90
2014,05,06,02,39,3.90
2014,05,06,02,40,3.90
2014,05,06,02,41,3.90
2014,05,06,02,42,3.90
2014,05,06,02,43,3.90
2014,05,06,02,44,3.90
2014,05,06,02,45,3.90
2014,05,06,02,46,3.90
2014,05,06,02,47,3.80
2014,05,06,02,48,3.80
2014,05,06,02,49,3.80
2014,05,06,02,50,3.80
2014,05,06,02,51,3.80
2014,05,06,02,52,3.80
2014,05,06,02,53,3.80
2014,05,06,02,54,3.80
2014,05,06,02,55,3.80
2014,05,06,02,56,3.80
2014,05,06,02,57,3.70
2014,05,06,02,58,3.70
2014,05,06,02,59,3.70
2014,05,06,03,00,3.70
2014,05,06,03,01,3.70
2014,05,06,03,02,3.70
2014,05,06,03,03,3.70
2014,05,06,03,04,3.70
2014,05,06,03,05,3.70
2014,05,06,03,06,3.70
2014,05,06,03,07,3.70
2014,05,06,03,08,3.70
2014,05,06,03,09,3.70
2014,05,06,03,10,3.60
2014,05,06,03,11,3.60
2014,05,06,03,12,3.60
2014,05,06,03,13,3.60
2014,05,06,03,14,3.60
2014,05,06,03,15,3.60
2014,05,06,03,16,3.60
2014,05,06,03,17,3.50
2014,05,06,03,18,3.50
2014,05,06,03,19,3.50
2014,05,06,03,20,3.50
2014,05,06,03,21,3.50
2014,05,06,03,22,3.50
2014,05,06,03,23,3.40
2014,05,06,03,24,3.40
2014,05,06,03,25,3.40
2014,05,06,03,26,3.40
2014,05,06,03,27,3.40
2014,05,06,03,28,3.40
2014,05,06,03,29,3.40
2014,05,06,03,30,3.30
2014,05,06,03,31,3.30
2014,05,06,03,32,3.30
2014,05,06,03,33,3.30
2014,05,06,03,34,3.30
2014,05,06,03,35,3.30
2014,05,06,03,36,3.30
2014,05,06,03,37,3.30
2014,05,06,03,38,3.20
2014,05,06,03,39,3.20
2014,05,06,03,40,3.20
2014,05,06,03,41,3.20
2014,05,06,03,42,3.20
2014,05,06,03,43,3.20
2014,05,06,03,44,3.20
2014,05,06,03,45,3.20
2014,05,06,03,46,3.20
2014,05,06,03,47,3.10
2014,05,06,03,48,3.10
2014,05,06,03,49,3.10
2014,05,06,03,50,3.10
2014,05,06,03,51,3.10
2014,05,06,03,52,3.10
2014,05,06,03,53,3.10
2014,05,06,03,54,3.00
2014,05,06,03,55,3.00
2014,05,06,03,56,3.00
2014,05,06,03,57,3.00
2014,05,06,03,58,2.90
2014,05,06,03,59,2.90
2014,05,06,04,00,2.90
2014,05,06,04,01,2.90
2014,05,06,04,02,2.90
2014,05,06,04,03,2.90
2014,05,06,04,04,2.90
2014,05,06,04,05,2.90
2014,05,06,04,06,2.90
2014,05,06,04,07,2.90
2014,05,06,04,08,2.90
2014,05,06,04,09,2.90
2014,05,06,04,10,2.80
2014,05,06,04,11,2.80
2014,05,06,04,12,2.80
2014,05,06,04,13,2.80
2014,05,06,04,14,2.80
2014,05,06,04,15,2.80
2014,05,06,04,16,2.80
2014,05,06,04,17,2.80
2014,05,06,04,18,2.80
2014,05,06,04,19,2.80
2014,05,06,04,20,2.80
2014,05,06,04,21,2.80
2014,05,06,04,22,2.80
2014,05,06,04,23,2.80
2014,05,06,04,24,2.80
2014,05,06,04,25,2.70
2014,05,06,04,26,2.70
2014,05,06,04,27,2.70
2014,05,06,04,28,2.70
2014,05,06,04,29,2.70
2014,05,06,04,30,2.70
2014,05,06,04,31,2.70
2014,05,06,04,32,2.70
2014,05,06,04,33,2.70
2014,05,06,04,34,2.70
2014,05,06,04,35,2.70
2014,05,06,04,36,2.60
2014,05,06,04,37,2.60
2014,05,06,04,38,2.60
2014,05,06,04,39,2.60
2014,05,06,04,40,2.60
2014,05,06,04,41,2.60
2014,05,06,04,42,2.60
2014,05,06,04,43,2.60
2014,05,06,04,44,2.50
2014,05,06,04,45,2.50
2014,05,06,04,46,2.50
2014,05,06,04,47,2.50
2014,05,06,04,48,2.50
2014,05,06,04,49,2.50
2014,05,06,04,50,2.50
2014,05,06,04,51,2.50
2014,05,06,04,52,2.50
2014,05,06,04,53,2.40
2014,05,06,04,54,2.40
2014,05,06,04,55,2.40
2014,05,06,04,56,2.40
2014,05,06,04,57,2.40
2014,05,06,04,58,2.40
2014,05,06,04,59,2.40
2014,05,06,05,00,2.40
2014,05,06,05,01,2.40
2014,05,06,05,02,2.30
2014,05,06,05,03,2.30
2014,05,06,05,04,2.30
2014,05,06,05,05,2.30
2014,05,06,05,06,2.30
2014,05,06,05,07,2.30
2014,05,06,05,08,2.30
2014,05,06,05,09,2.30
2014,05,06,05,10,2.30
2014,05,06,05,11,2.30
2014,05,06,05,12,2.30
2014,05,06,05,13,2.30
2014,05,06,05,14,2.30
2014,05,06,05,15,2.30
2014,05,06,05,16,2.30
2014,05,06,05,17,2.30
2014,05,06,05,18,2.30
2014,05,06,05,19,2.30
2014,05,06,05,20,2.30
2014,05,06,05,21,2.20
2014,05,06,05,22,2.20
2014,05,06,05,23,2.20
2014,05,06,05,24,2.20
2014,05,06,05,25,2.20
2014,05,06,05,26,2.20
2014,05,06,05,27,2.20
2014,05,06,05,28,2.20
2014,05,06,05,29,2.20
2014,05,06,05,30,2.20
2014,05,06,05,31,2.20
2014,05,06,05,32,2.20
2014,05,06,05,33,2.20
2014,05,06,05,34,2.20
2014,05,06,05,35,2.20
2014,05,06,05,36,2.10
2014,05,06,05,37,2.10
2014,05,06,05,38,2.10
2014,05,06,05,39,2.10
2014,05,06,05,40,2.10
2014,05,06,05,41,2.10
2014,05,06,05,42,2.10
2014,05,06,05,43,2.10
2014,05,06,05,44,2.10
2014,05,06,05,45,2.10
2014,05,06,05,46,2.10
2014,05,06,05,47,2.00
2014,05,06,05,48,2.00
2014,05,06,05,49,2.00
2014,05,06,05,50,2.00
2014,05,06,05,51,2.00
2014,05,06,05,52,2.00
2014,05,06,05,53,1.90
2014,05,06,05,54,1.90
2014,05,06,05,55,1.90
2014,05,06,05,56,1.90
2014,05,06,05,57,1.90
2014,05,06,05,58,1.90
2014,05,06,05,59,1.90
2014,05,06,06,00,1.90
2014,05,06,06,01,1.90
2014,05,06,06,02,1.90
2014,05,06,06,03,1.90
2014,05,06,06,04,1.90
2014,05,06,06,05,1.90
2014,05,06,06,06,1.90
2014,05,06,06,07,1.90
2014,05,06,06,08,1.90
2014,05,06,06,09,1.90
2014,05,06,06,10,1.90
2014,05,06,06,11,1.90
2014,05,06,06,12,1.90
2014,05,06,06,13,1.90
2014,05,06,06,14,1.90
2014,05,06,06,15,1.90
2014,05,06,06,16,1.90
2014,05,06,06,17,1.90
2014,05,06,06,18,1.90
2014,05,06,06,19,1.90
2014,05,06,06,20,1.90
2014,05,06,06,21,1.90
2014,05,06,06,22,1.90
2014,05,06,06,23,1.90
2014,05,06,06,24,1.90
2014,05,06,06,25,1.90
2014,05,06,06,26,2.00
2014,05,06,06,27,1.90
2014,05,06,06,28,2.00
2014,05,06,06,29,2.00
2014,05,06,06,30,2.00
2014,05,06,06,31,2.00
2014,05,06,06,32,2.00
2014,05,06,06,33,2.10
2014,05,06,06,34,2.10
2014,05,06,06,35,2.10
2014,05,06,06,36,2.10
2014,05,06,06,37,2.10
2014,05,06,06,38,2.10
2014,05,06,06,39,2.10
2014,05,06,06,40,2.10
2014,05,06,06,41,2.10
2014,05,06,06,42,2.10
2014,05,06,06,43,2.20
2014,05,06,06,44,2.20
2014,05,06,06,45,2.20
2014,05,06,06,46,2.20
2014,05,06,06,47,2.20
2014,05,06,06,48,2.20
2014,05,06,06,49,2.20
2014,05,06,06,50,2.20
2014,05,06,06,51,2.20
2014,05,06,06,52,2.20
2014,05,06,06,53,2.30
2014,05,06,06,54,2.30
2014,05,06,06,55,2.30
2014,05,06,06,56,2.30
2014,05,06,06,57,2.30
2014,05,06,06,58,2.30
2014,05,06,06,59,2.30
2014,05,06,07,00,2.40
2014,05,06,07,01,2.40
2014,05,06,07,02,2.40
2014,05,06,07,03,2.40
2014,05,06,07,04,2.50
2014,05,06,07,05,2.50
2014,05,06,07,06,2.50
2014,05,06,07,07,2.50
2014,05,06,07,08,2.60
2014,05,06,07,09,2.60
2014,05,06,07,10,2.60
2014,05,06,07,11,2.60
2014,05,06,07,12,2.60
2014,05,06,07,13,2.60
2014,05,06,07,14,2.70
2014,05,06,07,15,2.70
2014,05,06,07,16,2.70
2014,05,06,07,17,2.70
2014,05,06,07,18,2.80
2014,05,06,07,19,2.80
2014,05,06,07,20,2.90
2014,05,06,07,21,2.90
2014,05,06,07,22,2.90
2014,05,06,07,23,3.00
2014,05,06,07,24,3.10
2014,05,06,07,25,3.10
2014,05,06,07,26,3.20
2014,05,06,07,27,3.20
2014,05,06,07,28,3.30
2014,05,06,07,29,3.30
2014,05,06,07,30,3.30
2014,05,06,07,31,3.40
2014,05,06,07,32,3.50
2014,05,06,07,33,3.60
2014,05,06,07,34,3.60
2014,05,06,07,35,3.60
2014,05,06,07,36,3.70
2014,05,06,07,37,3.70
2014,05,06,07,38,3.70
2014,05,06,07,39,3.80
2014,05,06,07,40,3.80
2014,05,06,07,41,3.80
2014,05,06,07,42,3.80
2014,05,06,07,43,3.90
2014,05,06,07,44,4.00
2014,05,06,07,45,4.10
2014,05,06,07,46,4.20
2014,05,06,07,47,4.30
2014,05,06,07,48,4.40
2014,05,06,07,49,4.50
2014,05,06,07,50,4.50
2014,05,06,07,51,4.60
2014,05,06,07,52,4.70
2014,05,06,07,53,4.70
2014,05,06,07,54,4.70
2014,05,06,07,55,4.80
2014,05,06,07,56,4.80
2014,05,06,07,57,4.80
2014,05,06,07,58,4.90
2014,05,06,07,59,5.00
2014,05,06,08,00,5.00
2014,05,06,08,01,5.10
2014,05,06,08,02,5.20
2014,05,06,08,03,5.20
2014,05,06,08,04,5.30
2014,05,06,08,05,5.30
2014,05,06,08,06,5.40
2014,05,06,08,07,5.50
2014,05,06,08,08,5.50
2014,05,06,08,09,5.60
2014,05,06,08,10,5.70
2014,05,06,08,11,5.80
2014,05,06,08,12,5.80
2014,05,06,08,13,5.80
2014,05,06,08,14,5.80
2014,05,06,08,15,5.80
2014,05,06,08,16,5.80
2014,05,06,08,17,5.80
2014,05,06,08,18,5.80
2014,05,06,08,19,5.80
2014,05,06,08,20,5.80
2014,05,06,08,21,5.90
2014,05,06,08,22,5.90
2014,05,06,08,23,5.90
2014,05,06,08,24,6.00
2014,05,06,08,25,6.10
2014,05,06,08,26,6.20
2014,05,06,08,27,6.30
2014,05,06,08,28,6.40
2014,05,06,08,29,6.50
2014,05,06,08,30,6.60
2014,05,06,08,31,6.60
2014,05,06,08,32,6.70
2014,05,06,08,33,6.80
2014,05,06,08,34,6.90
2014,05,06,08,35,7.10
2014,05,06,08,36,7.20
2014,05,06,08,37,7.20
2014,05,06,08,38,7.30
2014,05,06,08,39,7.40
2014,05,06,08,40,7.40
2014,05,06,08,41,7.50
2014,05,06,08,42,7.50
2014,05,06,08,43,7.50
2014,05,06,08,44,7.60
2014,05,06,08,45,7.60
2014,05,06,08,46,7.60
2014,05,06,08,47,7.60
2014,05,06,08,48,7.70
2014,05,06,08,49,7.70
2014,05,06,08,50,7.70
2014,05,06,08,51,7.80
2014,05,06,08,52,7.80
2014,05,06,08,53,7.90
2014,05,06,08,54,8.00
2014,05,06,08,55,8.10
2014,05,06,08,56,8.20
2014,05,06,08,57,8.30
2014,05,06,08,58,8.40
2014,05,06,08,59,8.50
2014,05,06,09,00,8.60
2014,05,06,09,01,8.70
2014,05,06,09,02,8.80
2014,05,06,09,03,8.90
2014,05,06,09,04,9.00
2014,05,06,09,05,9.10
2014,05,06,09,06,9.10
2014,05,06,09,07,9.20
2014,05,06,09,08,9.20
2014,05,06,09,09,9.20
2014,05,06,09,10,9.20
2014,05,06,09,11,9.20
2014,05,06,09,12,9.20
2014,05,06,09,13,9.20
2014,05,06,09,14,9.20
2014,05,06,09,15,9.20
2014,05,06,09,16,9.20
2014,05,06,09,17,9.20
2014,05,06,09,18,9.30
2014,05,06,09,19,9.30
2014,05,06,09,20,9.40
2014,05,06,09,21,9.40
2014,05,06,09,22,9.30
2014,05,06,09,23,9.30
2014,05,06,09,24,9.20
2014,05,06,09,25,9.20
2014,05,06,09,26,9.10
2014,05,06,09,27,9.10
2014,05,06,09,28,9.20
2014,05,06,09,29,9.20
2014,05,06,09,30,9.30
2014,05,06,09,31,9.30
2014,05,06,09,32,9.40
2014,05,06,09,33,9.40
2014,05,06,09,34,9.40
2014,05,06,09,35,9.40
2014,05,06,09,36,9.50
2014,05,06,09,37,9.50
2014,05,06,09,38,9.40
2014,05,06,09,39,9.40
2014,05,06,09,40,9.40
2014,05,06,09,41,9.30
2014,05,06,09,42,9.30
2014,05,06,09,43,9.30
2014,05,06,09,44,9.30
2014,05,06,09,45,9.30
2014,05,06,09,46,9.30
2014,05,06,09,47,9.30
2014,05,06,09,48,9.30
2014,05,06,09,49,9.30
2014,05,06,09,50,9.40
2014,05,06,09,51,9.40
2014,05,06,09,52,9.40
2014,05,06,09,53,9.40
2014,05,06,09,54,9.40
2014,05,06,09,55,9.40
2014,05,06,09,56,9.50
2014,05,06,09,57,9.50
2014,05,06,09,58,9.60
2014,05,06,09,59,9.60
2014,05,06,10,00,9.60
2014,05,06,10,01,9.60
2014,05,06,10,02,9.70
2014,05,06,10,03,9.70
2014,05,06,10,04,9.80
2014,05,06,10,05,9.80
2014,05,06,10,06,9.90
2014,05,06,10,07,10.00
2014,05,06,10,08,10.10
2014,05,06,10,09,10.30
2014,05,06,10,10,10.40
2014,05,06,10,11,10.50
2014,05,06,10,12,10.50
2014,05,06,10,13,10.60
2014,05,06,10,14,10.60
2014,05,06,10,15,10.60
2014,05,06,10,16,10.70
2014,05,06,10,17,10.70
2014,05,06,10,18,10.70
2014,05,06,10,19,10.80
2014,05,06,10,20,10.90
2014,05,06,10,21,11.00
2014,05,06,10,22,11.10
2014,05,06,10,23,11.20
2014,05,06,10,24,11.30
2014,05,06,10,25,11.50
2014,05,06,10,26,11.50
2014,05,06,10,27,11.60
2014,05,06,10,28,11.70
2014,05,06,10,29,11.70
2014,05,06,10,30,11.80
2014,05,06,10,31,11.80
2014,05,06,10,32,11.90
2014,05,06,10,33,12.00
2014,05,06,10,34,12.10
2014,05,06,10,35,12.20
2014,05,06,10,36,12.20
2014,05,06,10,37,12.30
2014,05,06,10,38,12.30
2014,05,06,10,39,12.40
2014,05,06,10,40,12.50
2014,05,06,10,41,12.60
2014,05,06,10,42,12.70
2014,05,06,10,43,12.80
2014,05,06,10,44,12.80
2014,05,06,10,45,12.90
2014,05,06,10,46,12.90
2014,05,06,10,47,13.00
2014,05,06,10,48,13.10
2014,05,06,10,49,13.20
2014,05,06,10,50,13.20
2014,05,06,10,51,13.20
2014,05,06,10,52,13.20
2014,05,06,10,53,13.10
2014,05,06,10,54,13.10
2014,05,06,10,55,13.10
2014,05,06,10,56,13.10
2014,05,06,10,57,13.10
2014,05,06,10,58,13.10
2014,05,06,10,59,13.10
2014,05,06,11,00,13.20
2014,05,06,11,01,13.20
2014,05,06,11,02,13.20
2014,05,06,11,03,13.30
2014,05,06,11,04,13.40
2014,05,06,11,05,13.50
2014,05,06,11,06,13.70
2014,05,06,11,07,13.80
2014,05,06,11,08,14.00
2014,05,06,11,09,14.20
2014,05,06,11,10,14.30
2014,05,06,11,11,14.40
2014,05,06,11,12,14.40
2014,05,06,11,13,14.40
2014,05,06,11,14,14.40
2014,05,06,11,15,14.30
2014,05,06,11,16,14.30
2014,05,06,11,17,14.30
2014,05,06,11,18,14.30
2014,05,06,11,19,14.30
2014,05,06,11,20,14.40
2014,05,06,11,21,14.40
2014,05,06,11,22,14.40
2014,05,06,11,23,14.40
2014,05,06,11,24,14.40
2014,05,06,11,25,14.50
2014,05,06,11,26,14.50
2014,05,06,11,27,14.60
2014,05,06,11,28,14.70
2014,05,06,11,29,14.80
2014,05,06,11,30,14.90
2014,05,06,11,31,15.10
2014,05,06,11,32,15.10
2014,05,06,11,33,15.20
2014,05,06,11,34,15.20
2014,05,06,11,35,15.30
2014,05,06,11,36,15.30
2014,05,06,11,37,15.30
2014,05,06,11,38,15.30
2014,05,06,11,39,15.30
2014,05,06,11,40,15.20
2014,05,06,11,41,15.20
2014,05,06,11,42,15.20
2014,05,06,11,43,15.20
2014,05,06,11,44,15.30
2014,05,06,11,45,15.30
2014,05,06,11,46,15.40
2014,05,06,11,47,15.40
2014,05,06,11,48,15.40
2014,05,06,11,49,15.30
2014,05,06,11,50,15.40
2014,05,06,11,51,15.40
2014,05,06,11,52,15.40
2014,05,06,11,53,15.50
2014,05,06,11,54,15.50
2014,05,06,11,55,15.50
2014,05,06,11,56,15.40
2014,05,06,11,57,15.40
2014,05,06,11,58,15.50
2014,05,06,11,59,15.50
2014,05,06,12,00,15.60
2014,05,06,12,01,15.60
2014,05,06,12,02,15.70
2014,05,06,12,03,15.70
2014,05,06,12,04,15.80
2014,05,06,12,05,16.00
2014,05,06,12,06,16.10
2014,05,06,12,07,16.30
2014,05,06,12,08,16.50
2014,05,06,12,09,16.60
2014,05,06,12,10,16.70
2014,05,06,12,11,16.80
2014,05,06,12,12,16.80
2014,05,06,12,13,16.80
2014,05,06,12,14,16.80
2014,05,06,12,15,16.90
2014,05,06,12,16,16.90
2014,05,06,12,17,16.90
2014,05,06,12,18,16.90
2014,05,06,12,19,16.90
2014,05,06,12,20,16.90
2014,05,06,12,21,17.00
2014,05,06,12,22,17.00
2014,05,06,12,23,17.00
2014,05,06,12,24,17.00
2014,05,06,12,25,17.00
2014,05,06,12,26,17.10
2014,05,06,12,27,17.10
2014,05,06,12,28,17.20
2014,05,06,12,29,17.20
2014,05,06,12,30,17.30
2014,05,06,12,31,17.20
2014,05,06,12,32,17.10
2014,05,06,12,33,17.00
2014,05,06,12,34,16.90
2014,05,06,12,35,16.90
2014,05,06,12,36,16.90
2014,05,06,12,37,16.90
2014,05,06,12,38,16.90
2014,05,06,12,39,16.90
2014,05,06,12,40,16.80
2014,05,06,12,41,16.80
2014,05,06,12,42,16.80
2014,05,06,12,43,16.80
2014,05,06,12,44,16.80
2014,05,06,12,45,16.90
2014,05,06,12,46,17.00
2014,05,06,12,47,17.00
2014,05,06,12,48,17.10
2014,05,06,12,49,17.10
2014,05,06,12,50,17.20
2014,05,06,12,51,17.20
2014,05,06,12,52,17.30
2014,05,06,12,53,17.30
2014,05,06,12,54,17.40
2014,05,06,12,55,17.40
2014,05,06,12,56,17.40
2014,05,06,12,57,17.40
2014,05,06,12,58,17.40
2014,05,06,12,59,17.40
2014,05,06,13,00,17.40
2014,05,06,13,01,17.40
2014,05,06,13,02,17.40
2014,05,06,13,03,17.40
2014,05,06,13,04,17.40
2014,05,06,13,05,17.30
2014,05,06,13,06,17.30
2014,05,06,13,07,17.30
2014,05,06,13,08,17.30
2014,05,06,13,09,17.30
2014,05,06,13,10,17.30
2014,05,06,13,11,17.30
2014,05,06,13,12,17.30
2014,05,06,13,13,17.30
2014,05,06,13,14,17.30
2014,05,06,13,15,17.30
2014,05,06,13,16,17.30
2014,05,06,13,17,17.40
2014,05,06,13,18,17.40
2014,05,06,13,19,17.50
2014,05,06,13,20,17.50
2014,05,06,13,21,17.60
2014,05,06,13,22,17.60
2014,05,06,13,23,17.60
2014,05,06,13,24,17.60
2014,05,06,13,25,17.60
2014,05,06,13,26,17.70
2014,05,06,13,27,17.70
2014,05,06,13,28,17.70
2014,05,06,13,29,17.70
2014,05,06,13,30,17.70
2014,05,06,13,31,17.70
2014,05,06,13,32,17.70
2014,05,06,13,33,17.70
2014,05,06,13,34,17.70
2014,05,06,13,35,17.70
2014,05,06,13,36,17.70
2014,05,06,13,37,17.80
2014,05,06,13,38,17.80
2014,05,06,13,39,17.90
2014,05,06,13,40,17.90
2014,05,06,13,41,18.00
2014,05,06,13,42,18.10
2014,05,06,13,43,18.10
2014,05,06,13,44,18.10
2014,05,06,13,45,18.10
2014,05,06,13,46,18.10
2014,05,06,13,47,18.10
2014,05,06,13,48,18.10
2014,05,06,13,49,18.10
2014,05,06,13,50,18.10
2014,05,06,13,51,18.10
2014,05,06,13,52,18.10
2014,05,06,13,53,18.20
2014,05,06,13,54,18.20
2014,05,06,13,55,18.20
2014,05,06,13,56,18.10
2014,05,06,13,57,18.10
2014,05,06,13,58,18.10
2014,05,06,13,59,18.10
2014,05,06,14,00,18.10
2014,05,06,14,01,18.10
2014,05,06,14,02,18.20
2014,05,06,14,03,18.30
2014,05,06,14,04,18.40
2014,05,06,14,05,18.40
2014,05,06,14,06,18.40
2014,05,06,14,07,18.50
2014,05,06,14,08,18.50
2014,05,06,14,09,18.60
2014,05,06,14,10,18.60
2014,05,06,14,11,18.60
2014,05,06,14,12,18.70
2014,05,06,14,13,18.70
2014,05,06,14,14,18.70
2014,05,06,14,15,18.80
2014,05,06,14,16,18.80
2014,05,06,14,17,18.80
2014,05,06,14,18,18.80
2014,05,06,14,19,18.80
2014,05,06,14,20,18.80
2014,05,06,14,21,18.80
2014,05,06,14,22,18.80
2014,05,06,14,23,18.90
2014,05,06,14,24,18.90
2014,05,06,14,25,18.90
2014,05,06,14,26,18.90
2014,05,06,14,27,18.90
2014,05,06,14,28,18.80
2014,05,06,14,29,18.80
2014,05,06,14,30,18.80
2014,05,06,14,31,18.90
2014,05,06,14,32,19.00
2014,05,06,14,33,19.00
2014,05,06,14,34,19.10
2014,05,06,14,35,19.10
2014,05,06,14,36,19.20
2014,05,06,14,37,19.30
2014,05,06,14,38,19.30
2014,05,06,14,39,19.40
2014,05,06,14,40,19.50
2014,05,06,14,41,19.60
2014,05,06,14,42,19.60
2014,05,06,14,43,19.60
2014,05,06,14,44,19.60
2014,05,06,14,45,19.50
2014,05,06,14,46,19.40
2014,05,06,14,47,19.40
2014,05,06,14,48,19.30
2014,05,06,14,49,19.40
2014,05,06,14,50,19.40
2014,05,06,14,51,19.30
2014,05,06,14,52,19.20
2014,05,06,14,53,19.20
2014,05,06,14,54,19.20
2014,05,06,14,55,19.20
2014,05,06,14,56,19.10
2014,05,06,14,57,19.10
2014,05,06,14,58,19.20
2014,05,06,14,59,19.20
2014,05,06,15,00,19.20
2014,05,06,15,01,19.20
2014,05,06,15,02,19.20
2014,05,06,15,03,19.20
2014,05,06,15,04,19.20
2014,05,06,15,05,19.20
2014,05,06,15,06,19.20
2014,05,06,15,07,19.20
2014,05,06,15,08,19.20
2014,05,06,15,09,19.20
2014,05,06,15,10,19.10
2014,05,06,15,11,19.10
2014,05,06,15,12,19.00
2014,05,06,15,13,19.00
2014,05,06,15,14,19.00
2014,05,06,15,15,19.10
2014,05,06,15,16,19.10
2014,05,06,15,17,19.10
2014,05,06,15,18,19.10
2014,05,06,15,19,19.10
2014,05,06,15,20,19.10
2014,05,06,15,21,19.10
2014,05,06,15,22,19.10
2014,05,06,15,23,19.10
2014,05,06,15,24,19.10
2014,05,06,15,25,19.10
2014,05,06,15,26,19.00
2014,05,06,15,27,19.00
2014,05,06,15,28,18.90
2014,05,06,15,29,18.90
2014,05,06,15,30,19.00
2014,05,06,15,31,18.90
2014,05,06,15,32,18.90
2014,05,06,15,33,18.90
2014,05,06,15,34,18.90
2014,05,06,15,35,18.90
2014,05,06,15,36,18.90
2014,05,06,15,37,18.80
2014,05,06,15,38,18.80
2014,05,06,15,39,18.70
2014,05,06,15,40,18.60
2014,05,06,15,41,18.60
2014,05,06,15,42,18.50
2014,05,06,15,43,18.50
2014,05,06,15,44,18.40
2014,05,06,15,45,18.30
2014,05,06,15,46,18.30
2014,05,06,15,47,18.30
2014,05,06,15,48,18.20
2014,05,06,15,49,18.20
2014,05,06,15,50,18.20
2014,05,06,15,51,18.20
2014,05,06,15,52,18.30
2014,05,06,15,53,18.40
2014,05,06,15,54,18.50
2014,05,06,15,55,18.60
2014,05,06,15,56,18.70
2014,05,06,15,57,18.80
2014,05,06,15,58,19.00
2014,05,06,15,59,19.10
2014,05,06,16,00,19.10
2014,05,06,16,01,19.10
2014,05,06,16,02,19.10
2014,05,06,16,03,19.00
2014,05,06,16,04,19.00
2014,05,06,16,05,19.00
2014,05,06,16,06,18.90
2014,05,06,16,07,18.80
2014,05,06,16,08,18.70
2014,05,06,16,09,18.70
2014,05,06,16,10,18.60
2014,05,06,16,11,18.60
2014,05,06,16,12,18.60
2014,05,06,16,13,18.50
2014,05,06,16,14,18.50
2014,05,06,16,15,18.40
2014,05,06,16,16,18.40
2014,05,06,16,17,18.30
2014,05,06,16,18,18.20
2014,05,06,16,19,18.20
2014,05,06,16,20,18.10
2014,05,06,16,21,18.10
2014,05,06,16,22,18.10
2014,05,06,16,23,18.20
2014,05,06,16,24,18.20
2014,05,06,16,25,18.20
2014,05,06,16,26,18.30
2014,05,06,16,27,18.30
2014,05,06,16,28,18.40
2014,05,06,16,29,18.50
2014,05,06,16,30,18.50
2014,05,06,16,31,18.60
2014,05,06,16,32,18.70
2014,05,06,16,33,18.70
2014,05,06,16,34,18.80
2014,05,06,16,35,18.80
2014,05,06,16,36,18.80
2014,05,06,16,37,18.80
2014,05,06,16,38,18.70
2014,05,06,16,39,18.70
2014,05,06,16,40,18.60
2014,05,06,16,41,18.60
2014,05,06,16,42,18.60
2014,05,06,16,43,18.60
2014,05,06,16,44,18.60
2014,05,06,16,45,18.60
2014,05,06,16,46,18.50
2014,05,06,16,47,18.50
2014,05,06,16,48,18.40
2014,05,06,16,49,18.40
2014,05,06,16,50,18.40
2014,05,06,16,51,18.40
2014,05,06,16,52,18.40
2014,05,06,16,53,18.40
2014,05,06,16,54,18.40
2014,05,06,16,55,18.30
2014,05,06,16,56,18.30
2014,05,06,16,57,18.30
2014,05,06,16,58,18.30
2014,05,06,16,59,18.30
2014,05,06,17,00,18.30
2014,05,06,17,01,18.30
2014,05,06,17,02,18.30
2014,05,06,17,03,18.40
2014,05,06,17,04,18.40
2014,05,06,17,05,18.40
2014,05,06,17,06,18.40
2014,05,06,17,07,18.50
2014,05,06,17,08,18.50
2014,05,06,17,09,18.50
2014,05,06,17,10,18.50
2014,05,06,17,11,18.50
2014,05,06,17,12,18.50
2014,05,06,17,13,18.40
2014,05,06,17,14,18.40
2014,05,06,17,15,18.40
2014,05,06,17,16,18.40
2014,05,06,17,17,18.30
2014,05,06,17,18,18.30
2014,05,06,17,19,18.30
2014,05,06,17,20,18.20
2014,05,06,17,21,18.20
2014,05,06,17,22,18.10
2014,05,06,17,23,18.00
2014,05,06,17,24,18.00
2014,05,06,17,25,17.90
2014,05,06,17,26,17.90
2014,05,06,17,27,17.90
2014,05,06,17,28,17.80
2014,05,06,17,29,17.80
2014,05,06,17,30,17.70
2014,05,06,17,31,17.70
2014,05,06,17,32,17.70
2014,05,06,17,33,17.60
2014,05,06,17,34,17.60
2014,05,06,17,35,17.50
2014,05,06,17,36,17.40
2014,05,06,17,37,17.40
2014,05,06,17,38,17.30
2014,05,06,17,39,17.30
2014,05,06,17,40,17.20
2014,05,06,17,41,17.20
2014,05,06,17,42,17.20
2014,05,06,17,43,17.20
2014,05,06,17,44,17.20
2014,05,06,17,45,17.20